Voltar ao catálogo

ARIANE 5 R/B

AtivoHEO
NORAD 36583·ROCKET BODY·🇫🇷 France

Lançado May 21, 2010 de Guiana Space Centre

Loading…

Próximas Passagens (próximas 24 horas)

TLE

AtualizadoSource: Space-Track

Época: Sep 14, 2026, 08:01 UTC

1 36583U 10021C   26257.33445395  .00003525  00000-0  88638-3 0  9998
2 36583   2.7622 240.2128 7037034  99.3496 339.3473  2.59323142118248

Acompanhe ARIANE 5 R/B em tempo real com AllMySat

Download on the App Store